Location: Biltmore Gardens
(41.6070°N, 83.4666°W)
Time: 09:29:42
(UTC+00:00)

Vanguard 3 - Pass Details

Date: 25 April 2021
Orbit: 508 x 3262 km, 33.3° (Epoch: 08 May)

Event Time Altitude Azimuth Distance (km) Brightness Sun altitude
Exits shadow 08:29:07 12° 142° (SE) 1,609 8.6 -21.6°
Drops below altitude 10° 08:29:31 10° 138° (SE) 1,731 8.8 -21.5°
Sets 08:31:51 0° 123° (ESE) 2,594 9.9 -21.2°
